Weather Roundup
Issued by NWS

Home | Current Version | Previous Version | Text Only | Print | Product List | Glossary On
Versions: 1 2 3 4 5 6 7 8 9 10 11 12 13 14 15 16 17 18 19 20 21 22 23 24 25 26 27 28 29 30 31 32 33 34 35 36 37 38 39 40 41 42 43 44 45 46 47 48 49 50
000
NZUS93 KARX 222110
HRRWXR

CURRENT HOURLY OBSERVATIONS ACROSS
MUCH OF THE UPPER MISSISSIPPI VALLEY
NATIONAL WEATHER SERVICE LA CROSSE WI
400 PM CDT FRI MAY 22 2015


...SOUTHEAST MINNESOTA...


CITY           SKY/WX    TMP DP  RH WIND       PRES   REMARKS
ROCHESTER      SUNNY     70  38  31 E8        30.21F
ROCHESTER/MAYO FAIR      72  32  22 CALM      30.21F
WINONA         SUNNY     73  39  29 NE6       30.20F
AUSTIN         MOSUNNY   72  39  30 SE3       30.20S
ALBERT LEA     PTSUNNY   72  32  23 CALM      30.20S
DODGE CENTER   SUNNY     72  30  21 CALM      30.20F
PRESTON        MOSUNNY   70  31  23 CALM      30.21F
OWATONNA       SUNNY     72  30  21 N5        30.19F
FARIBAULT      SUNNY     72  34  25 N8        30.20F
$$

...ELSEWHERE IN MINNESOTA...


CITY           SKY/WX    TMP DP  RH WIND       PRES   REMARKS
MINNEAPOLIS    MOSUNNY   72  33  24 VRB3      30.20F
INTNL FALLS    SUNNY     75  32  20 W12       30.12F
DULUTH         MOSUNNY   71  31  22 VRB3      30.18F
RED WING       SUNNY     73  34  23 S5        30.20S
REDWOOD FALLS  MOSUNNY   75  32  20 NE8       30.17F
MANKATO        MOSUNNY   72  32  23 SW3       30.19F
WORTHINGTON    CLOUDY    73  28  19 W5        30.18F
FAIRMONT       CLOUDY    73  28  19 E8        30.19S
$$

...SOUTHWEST WISCONSIN...


CITY           SKY/WX    TMP DP  RH WIND       PRES   REMARKS
LA CROSSE      SUNNY     76  33  21 NW6       30.20F
PRAIRIE DU CHI MOSUNNY   75  31  20 N5        30.18F
BOSCOBEL       SUNNY     76  36  23 VRB6      30.19F
LONE ROCK      SUNNY     74  34  23 VRB6      30.20S
PLATTEVILLE    SUNNY     73  34  24 NW5       30.20F
FORT MC COY    SUNNY     73  34  23 W8        30.21F
CAMP DOUGLAS   SUNNY     74  34  23 W12       30.20F
VIROQUA        FAIR      73  35  25 NW5       30.21F
WIS DELLS      SUNNY     72  30  21 NW3       30.21F
$$

...ELSEWHERE IN WISCONSIN...


CITY           SKY/WX    TMP DP  RH WIND       PRES   REMARKS
MILWAUKEE      MOSUNNY   56  30  37 E9        30.27S
MADISON        PTSUNNY   70  35  27 VRB3      30.21F
GREEN BAY      SUNNY     69  31  24 SW7       30.22F
EAU CLAIRE     SUNNY     70  31  23 VRB3      30.21F
BLACK RVR FLS  FAIR      72  31  22 S5        30.20S
MEDFORD        SUNNY     67  31  26 CALM      30.21F
WAUSAU         SUNNY     68  31  25 W10       30.20S
WIS RAPIDS     SUNNY     71  28  20 N9        30.22F
MARSHFIELD     SUNNY     69  34  27 VRB5      30.22S
RICE LAKE      SUNNY     70  30  22 SW5       30.23S
$$

...NORTHEAST IOWA...


CITY           SKY/WX    TMP DP  RH WIND       PRES   REMARKS
DECORAH        MOSUNNY   72  32  23 VRB5      30.19F
MASON CITY     CLOUDY    73  36  25 W3        30.20F
CHARLES CITY   CLOUDY    73  30  20 CALM      30.20S
OELWEIN        CLOUDY    73  36  25 SW10      30.20S
$$

...ELSEWHERE IN IOWA...


CITY           SKY/WX    TMP DP  RH WIND       PRES   REMARKS
DES MOINES     CLOUDY    74  36  25 S3        30.20F
IOWA CITY      CLOUDY    74  34  23 CALM      30.21S
FORT DODGE     CLOUDY    72  41  33 CALM      30.21S
$$

...NORTHERN ILLINOIS...


CITY           SKY/WX    TMP DP  RH WIND       PRES   REMARKS
CHICAGO-OHARE  PTSUNNY   64  28  25 E12       30.24S
CHICAGO-MIDWAY PTSUNNY   65  29  25 E10       30.25S
MOLINE         CLOUDY    76  37  24 CALM      30.19S
ROCKFORD       PTSUNNY   73  36  25 VRB5      30.23F
PEORIA         CLOUDY    78  42  27 W6        30.21S
$$

NOTE: "FAIR" INDICATES FEW OR NO CLOUDS BELOW 12,000 FEET WITH NO
SIGNIFICANT WEATHER AND/OR OBSTRUCTIONS TO VISIBILITY. WIND
SPEEDS ARE IN MILES-PER-HOUR.



USA.gov is the U.S. government's official web portal to all federal, state and local government web resources and services.